Total_Precipitation_Accumulation
0.00 0.00 0.00 0.00 0.00 0.00 0.00 0.00 0.00 0.00 0.01 0.03 0.04 0.05 0.04 0.04 0.04 0.04 0.03 0.04 0.04 0.04 0.05 0.05 0.04 0.05 0.06 0.06 0.06 0.07 0.07 0.07 0.08 0.11 0.12 0.14 0.17 0.18 0.19 0.24 0.38 0.51 0.54
0.00 0.00 0.00 0.00 0.00 0.00 0.00 0.00 0.00 0.00 0.01 0.01 0.02 0.02 0.02 0.02 0.02 0.02 0.03 0.02 0.02 0.03 0.03 0.04 0.03 0.03 0.03 0.02 0.02 0.03 0.04 0.04 0.03 0.08 0.13 0.10 0.09 0.13 0.14 0.13 0.22 0.34 0.43
0.00 0.00 0.00 0.00 0.00 0.00 0.00 0.00 0.00 0.00 0.00 0.01 0.01 0.02 0.02 0.02 0.02 0.02 0.02 0.01 0.02 0.02 0.02 0.01 0.02 0.02 0.01 0.02 0.02 0.03 0.05 0.06 0.04 0.07 0.21 0.29 0.18 0.11 0.06 0.08 0.13 0.16 0.20
0.00 0.00 0.00 0.00 0.00 0.00 0.00 0.00 0.00 0.00 0.00 0.01 0.01 0.01 0.01 0.01 0.01 0.01 0.01 0.01 0.02 0.02 0.02 0.01 0.02 0.02 0.02 0.02 0.03 0.03 0.05 0.09 0.10 0.07 0.10 0.19 0.23 0.28 0.15 0.03 0.03 0.03 0.05
0.00 0.00 0.00 0.00 0.00 0.00 0.00 0.00 0.00 0.00 0.00 0.01 0.01 0.01 0.01 0.00 0.00 0.00 0.01 0.01 0.01 0.02 0.02 0.02 0.02 0.02 0.03 0.03 0.04 0.05 0.06 0.09 0.13 0.14 0.13 0.13 0.12 0.17 0.27 0.13 0.03 0.03 0.03
0.00 0.00 0.00 0.00 0.00 0.00 0.00 0.00 0.00 0.00 0.00 0.01 0.01 0.01 0.01 0.00 0.00 0.01 0.01 0.02 0.02 0.02 0.02 0.02 0.03 0.03 0.03 0.04 0.06 0.07 0.08 0.09 0.12 0.15 0.17 0.22 0.24 0.19 0.25 0.22 0.07 0.03 0.03
0.00 0.00 0.00 0.00 0.00 0.00 0.00 0.00 0.00 0.00 0.00 0.00 0.01 0.01 0.00 0.00 0.01 0.01 0.01 0.02 0.03 0.03 0.02 0.02 0.03 0.04 0.05 0.06 0.08 0.11 0.12 0.12 0.15 0.17 0.19 0.22 0.23 0.23 0.28 0.31 0.17 0.07 0.02
0.00 0.00 0.00 0.00 0.00 0.00 0.00 0.00 0.00 0.00 0.00 0.00 0.00 0.00 0.00 0.01 0.01 0.01 0.01 0.02 0.03 0.03 0.03 0.03 0.04 0.04 0.06 0.08 0.12 0.15 0.16 0.18 0.20 0.20 0.22 0.24 0.20 0.23 0.28 0.35 0.39 0.30 0.09
0.00 0.00 0.00 0.00 0.00 0.00 0.00 0.00 0.00 0.00 0.00 0.00 0.00 0.00 0.00 0.00 0.00 0.01 0.01 0.02 0.02 0.02 0.03 0.04 0.06 0.07 0.09 0.10 0.13 0.16 0.18 0.21 0.24 0.26 0.28 0.30 0.26 0.25 0.27 0.31 0.45 0.61 0.42
0.00 0.00 0.00 0.00 0.00 0.00 0.00 0.00 0.00 0.00 0.00 0.00 0.00 0.00 0.00 0.00 0.00 0.01 0.01 0.02 0.02 0.02 0.03 0.05 0.08 0.12 0.15 0.16 0.18 0.20 0.20 0.22 0.24 0.29 0.32 0.35 0.35 0.34 0.33 0.34 0.36 0.47 0.57
0.00 0.00 0.00 0.00 0.00 0.00 0.00 0.00 0.00 0.01 0.00 0.00 0.00 0.00 0.00 0.00 0.01 0.02 0.03 0.03 0.03 0.04 0.05 0.07 0.10 0.14 0.19 0.23 0.26 0.27 0.28 0.29 0.28 0.29 0.31 0.33 0.38 0.44 0.43 0.42 0.42 0.40 0.45
0.00 0.00 0.00 0.00 0.00 0.00 0.00 0.01 0.01 0.01 0.00 0.00 0.00 0.00 0.00 0.01 0.02 0.04 0.06 0.06 0.07 0.08 0.10 0.13 0.16 0.21 0.24 0.27 0.33 0.37 0.38 0.43 0.42 0.38 0.38 0.39 0.41 0.46 0.48 0.51 0.49 0.44 0.40
0.00 0.00 0.00 0.00 0.00 0.01 0.01 0.02 0.02 0.01 0.00 0.00 0.00 0.00 0.00 0.01 0.03 0.06 0.10 0.15 0.19 0.22 0.24 0.27 0.32 0.38 0.42 0.44 0.46 0.51 0.59 0.65 0.63 0.61 0.60 0.55 0.53 0.55 0.53 0.54 0.54 0.49 0.42
0.00 0.00 0.00 0.00 0.01 0.01 0.02 0.02 0.01 0.01 0.01 0.01 0.00 0.01 0.02 0.04 0.07 0.09 0.15 0.25 0.34 0.42 0.47 0.51 0.54 0.60 0.68 0.79 0.84 0.82 0.83 0.82 0.79 0.77 0.78 0.77 0.75 0.74 0.72 0.70 0.63 0.59 0.57
0.00 0.00 0.00 0.01 0.02 0.02 0.02 0.02 0.01 0.01 0.01 0.01 0.01 0.02 0.05 0.11 0.17 0.20 0.23 0.31 0.40 0.48 0.53 0.54 0.55 0.60 0.82 1.16 1.28 1.12 0.91 0.77 0.73 0.71 0.73 0.80 0.91 0.96 1.00 1.05 0.91 0.79 0.80
0.00 0.01 0.01 0.02 0.03 0.03 0.03 0.02 0.02 0.03 0.02 0.02 0.03 0.06 0.11 0.18 0.26 0.29 0.33 0.40 0.45 0.48 0.48 0.48 0.49 0.51 0.69 1.09 1.22 0.94 0.66 0.53 0.56 0.61 0.59 0.60 0.72 0.80 0.86 1.00 1.02 1.02 1.09
0.01 0.01 0.03 0.03 0.04 0.04 0.04 0.04 0.03 0.03 0.02 0.04 0.06 0.10 0.13 0.17 0.20 0.23 0.28 0.33 0.31 0.27 0.30 0.36 0.36 0.36 0.47 0.82 0.95 0.67 0.37 0.27 0.32 0.41 0.44 0.45 0.52 0.63 0.66 0.69 0.71 0.79 0.92
0.04 0.04 0.04 0.04 0.03 0.03 0.03 0.03 0.02 0.01 0.02 0.04 0.07 0.10 0.12 0.16 0.14 0.13 0.17 0.20 0.17 0.17 0.20 0.22 0.19 0.16 0.24 0.57 0.76 0.53 0.23 0.17 0.21 0.29 0.34 0.34 0.38 0.51 0.69 0.76 0.64 0.57 0.67
0.04 0.04 0.04 0.03 0.02 0.02 0.02 0.02 0.01 0.01 0.02 0.04 0.05 0.07 0.10 0.14 0.12 0.10 0.11 0.14 0.14 0.13 0.12 0.11 0.08 0.06 0.10 0.39 0.70 0.56 0.22 0.17 0.16 0.21 0.30 0.29 0.26 0.43 0.61 0.67 0.60 0.49 0.52
0.02 0.03 0.02 0.01 0.01 0.01 0.01 0.01 0.00 0.00 0.01 0.02 0.03 0.03 0.04 0.06 0.05 0.04 0.04 0.04 0.06 0.06 0.06 0.05 0.04 0.03 0.04 0.21 0.62 0.69 0.30 0.21 0.16 0.17 0.23 0.32 0.33 0.44 0.53 0.54 0.56 0.59 0.53
0.01 0.01 0.01 0.01 0.00 0.00 0.00 0.00 0.00 0.00 0.00 0.00 0.00 0.00 0.00 0.01 0.01 0.02 0.02 0.02 0.03 0.03 0.03 0.03 0.03 0.03 0.03 0.07 0.39 0.77 0.55 0.33 0.23 0.22 0.26 0.28 0.33 0.39 0.44 0.49 0.55 0.68 0.59
0.01 0.00 0.00 0.00 0.00 0.00 0.00 0.00 0.00 0.00 0.00 0.00 0.00 0.00 0.00 0.01 0.01 0.02 0.02 0.02 0.03 0.04 0.04 0.04 0.03 0.03 0.03 0.06 0.24 0.52 0.65 0.50 0.32 0.29 0.22 0.21 0.26 0.31 0.37 0.41 0.47 0.49 0.50
0.00 0.01 0.00 0.00 0.00 0.00 0.00 0.00 0.00 0.00 0.00 0.00 0.00 0.00 0.01 0.01 0.02 0.02 0.03 0.03 0.04 0.06 0.08 0.07 0.06 0.05 0.05 0.09 0.22 0.27 0.33 0.42 0.38 0.38 0.35 0.25 0.24 0.26 0.23 0.25 0.31 0.35 0.36
0.00 0.00 0.00 0.00 0.00 0.00 0.00 0.00 0.00 0.00 0.00 0.00 0.01 0.01 0.01 0.02 0.02 0.03 0.04 0.05 0.08 0.19 0.23 0.18 0.15 0.11 0.10 0.20 0.36 0.27 0.19 0.24 0.33 0.34 0.30 0.23 0.20 0.18 0.14 0.13 0.16 0.20 0.27
0.00 0.00 0.00 0.00 0.00 0.00 0.00 0.00 0.00 0.00 0.00 0.01 0.01 0.01 0.02 0.03 0.03 0.04 0.04 0.06 0.09 0.27 0.40 0.32 0.31 0.31 0.33 0.40 0.52 0.46 0.41 0.41 0.42 0.43 0.40 0.30 0.24 0.22 0.18 0.14 0.11 0.14 0.20
0.00 0.00 0.00 0.00 0.00 0.00 0.00 0.00 0.00 0.00 0.01 0.01 0.02 0.02 0.04 0.04 0.04 0.05 0.05 0.05 0.08 0.14 0.17 0.20 0.28 0.29 0.40 0.43 0.38 0.39 0.41 0.43 0.43 0.47 0.46 0.30 0.22 0.21 0.19 0.18 0.15 0.13 0.15